| time (UTC) | temp F | wind direction | speed knots | gust knots | rain 1hr in | rain 24hr in | rain mn in | humidity % | barometer mb |
| 20260507094803 | 40 | 355 | 0.0 | 0.0 | 0.00 | 0.01 | 0.00 | 91 | 1015.8 |
| 20260507094302 | 40 | 355 | 0.0 | 0.0 | 0.00 | 0.01 | 0.00 | 91 | 1015.7 |
| 20260507093803 | 40 | 355 | 0.0 | 0.0 | 0.00 | 0.01 | 0.00 | 91 | 1015.7 |
| 20260507093305 | 40 | 355 | 0.0 | 0.0 | 0.00 | 0.01 | 0.00 | 92 | 1015.8 |
| 20260507091803 | 40 | 355 | 0.0 | 0.0 | 0.00 | 0.01 | 0.00 | 91 | 1015.8 |
| 20260507090303 | 41 | 355 | 0.0 | 0.0 | 0.00 | 0.01 | 0.00 | 92 | 1015.7 |
| 20260507084803 | 41 | 355 | 0.0 | 0.0 | 0.00 | 0.01 | 0.00 | 92 | 1015.7 |
| 20260507084303 | 41 | 355 | 0.0 | 0.0 | 0.00 | 0.01 | 0.00 | 92 | 1015.6 |
| 20260507083803 | 41 | 355 | 0.0 | 0.0 | 0.00 | 0.02 | 0.00 | 92 | 1015.7 |
| 20260507083303 | 40 | 355 | 0.0 | 0.0 | 0.00 | 0.02 | 0.00 | 92 | 1015.8 |
| 20260507081803 | 40 | 355 | 0.0 | 0.0 | 0.00 | 0.02 | 0.00 | 92 | 1016.0 |
| 20260507080803 | 40 | 355 | 0.0 | 0.0 | 0.00 | 0.02 | 0.00 | 92 | 1016.0 |
| 20260507080303 | 40 | 355 | 0.0 | 0.0 | 0.00 | 0.02 | 0.00 | 91 | 1016.0 |
| 20260507074803 | 40 | 355 | 0.0 | 0.0 | 0.00 | 0.02 | 0.00 | 90 | 1016.0 |
| 20260507074303 | 40 | 355 | 0.0 | 0.0 | 0.00 | 0.02 | 0.00 | 91 | 1016.1 |
| 20260507073803 | 40 | 355 | 0.0 | 0.0 | 0.00 | 0.02 | 0.00 | 91 | 1016.1 |
| 20260507071303 | 40 | 355 | 0.0 | 0.0 | 0.00 | 0.03 | 0.00 | 91 | 1016.3 |
| 20260507070803 | 40 | 355 | 0.0 | 0.0 | 0.00 | 0.03 | 0.00 | 91 | 1016.4 |
| 20260507070303 | 39 | 355 | 0.0 | 0.0 | 0.00 | 0.03 | 0.00 | 91 | 1016.3 |
| 20260507064803 | 40 | 355 | 0.0 | 0.0 | 0.00 | 0.03 | 0.00 | 90 | 1016.4 |
| 20260507064304 | 40 | 355 | 0.0 | 0.0 | 0.00 | 0.03 | 0.00 | 91 | 1016.4 |
| 20260507063803 | 40 | 355 | 0.0 | 0.0 | 0.00 | 0.03 | 0.00 | 90 | 1016.4 |
| 20260507063303 | 40 | 355 | 0.0 | 0.0 | 0.00 | 0.03 | 0.00 | 90 | 1016.2 |
| 20260507061803 | 40 | 355 | 0.0 | 0.0 | 0.00 | 0.03 | 0.00 | 89 | 1016.3 |
| 20260507061303 | 40 | 355 | 0.0 | 0.0 | 0.00 | 0.03 | 0.00 | 90 | 1016.3 |
| 20260507060803 | 40 | 355 | 0.0 | 0.0 | 0.00 | 0.03 | 0.00 | 90 | 1016.3 |
| 20260507060303 | 40 | 355 | 0.0 | 0.0 | 0.00 | 0.03 | 0.00 | 90 | 1016.4 |
| 20260507054803 | 40 | 355 | 0.0 | 0.0 | 0.00 | 0.03 | 0.00 | 89 | 1016.7 |
| 20260507054303 | 40 | 355 | 0.0 | 0.0 | 0.00 | 0.03 | 0.00 | 89 | 1016.6 |
| 20260507053803 | 40 | 355 | 0.0 | 0.0 | 0.00 | 0.03 | 0.00 | 89 | 1016.6 |
| 20260507053303 | 41 | 355 | 0.0 | 0.0 | 0.00 | 0.03 | 0.00 | 89 | 1016.6 |
| 20260507050803 | 41 | 355 | 0.0 | 0.0 | 0.00 | 0.03 | 0.00 | 89 | 1016.4 |
| 20260507050304 | 41 | 355 | 0.0 | 0.0 | 0.00 | 0.03 | 0.00 | 88 | 1016.4 |
| 20260507044803 | 42 | 355 | 0.0 | 0.0 | 0.00 | 0.03 | 0.03 | 88 | 1016.5 |
| 20260507044303 | 42 | 355 | 0.0 | 0.0 | 0.00 | 0.03 | 0.03 | 87 | 1016.4 |
| 20260507043803 | 42 | 355 | 0.0 | 0.0 | 0.00 | 0.03 | 0.03 | 87 | 1016.4 |
| 20260507043303 | 42 | 355 | 0.0 | 0.0 | 0.00 | 0.03 | 0.03 | 88 | 1016.3 |
| 20260507041803 | 43 | 355 | 0.0 | 0.0 | 0.00 | 0.03 | 0.03 | 86 | 1016.3 |
| 20260507041303 | 43 | 355 | 0.0 | 0.0 | 0.00 | 0.03 | 0.03 | 87 | 1016.3 |
| 20260507040803 | 43 | 355 | 0.0 | 0.0 | 0.00 | 0.03 | 0.03 | 86 | 1016.3 |
| 20260507040303 | 43 | 355 | 0.0 | 0.0 | 0.00 | 0.03 | 0.03 | 86 | 1016.3 |
| 20260507034803 | 44 | 355 | 0.0 | 0.0 | 0.00 | 0.03 | 0.03 | 86 | 1016.3 |
| 20260507033803 | 44 | 355 | 0.0 | 0.0 | 0.00 | 0.03 | 0.03 | 86 | 1016.4 |
| 20260507033303 | 44 | 355 | 0.0 | 0.0 | 0.00 | 0.03 | 0.03 | 86 | 1016.4 |
| 20260507031803 | 44 | 355 | 0.0 | 0.0 | 0.00 | 0.03 | 0.03 | 85 | 1016.3 |
| 20260507031303 | 44 | 355 | 0.0 | 0.0 | 0.00 | 0.03 | 0.03 | 84 | 1016.3 |
| 20260507030804 | 44 | 355 | 0.0 | 0.0 | 0.00 | 0.04 | 0.03 | 84 | 1016.4 |
| 20260507030303 | 44 | 355 | 0.0 | 0.0 | 0.00 | 0.04 | 0.03 | 84 | 1016.3 |
| 20260507024803 | 45 | 355 | 0.0 | 0.0 | 0.00 | 0.05 | 0.03 | 82 | 1016.3 |
| 20260507024303 | 45 | 355 | 0.0 | 0.0 | 0.00 | 0.05 | 0.03 | 81 | 1016.4 |
| 20260507023303 | 46 | 355 | 0.0 | 0.0 | 0.00 | 0.05 | 0.03 | 79 | 1016.3 |
| 20260507021304 | 47 | 355 | 0.0 | 0.0 | 0.00 | 0.06 | 0.03 | 77 | 1015.9 |
| 20260507020803 | 48 | 355 | 0.0 | 0.0 | 0.00 | 0.06 | 0.03 | 76 | 1015.9 |
| 20260507020303 | 49 | 355 | 0.0 | 0.0 | 0.00 | 0.06 | 0.03 | 76 | 1015.8 |
| 20260507014803 | 50 | 355 | 0.0 | 0.0 | 0.00 | 0.07 | 0.03 | 72 | 1015.6 |
| 20260507014303 | 50 | 355 | 0.0 | 0.0 | 0.00 | 0.07 | 0.03 | 68 | 1015.6 |
| 20260507013803 | 50 | 355 | 0.0 | 0.0 | 0.00 | 0.08 | 0.03 | 69 | 1015.5 |
| 20260507013303 | 51 | 355 | 0.0 | 0.0 | 0.00 | 0.09 | 0.03 | 67 | 1015.5 |
| 20260507011303 | 52 | 355 | 0.0 | 0.0 | 0.00 | 0.13 | 0.03 | 63 | 1015.2 |
| 20260507010303 | 52 | 355 | 0.0 | 0.0 | 0.00 | 0.14 | 0.03 | 62 | 1015.2 |
| 20260507004803 | 53 | 355 | 0.0 | 0.0 | 0.00 | 0.15 | 0.03 | 60 | 1015.0 |
| 20260507001804 | 56 | 8 | 0.0 | 0.0 | 0.00 | 0.18 | 0.03 | 56 | 1014.9 |
| 20260507001303 | 56 | 298 | 0.0 | 0.0 | 0.00 | 0.19 | 0.03 | 51 | 1014.8 |
| 20260507000803 | 56 | 297 | 0.0 | 0.0 | 0.00 | 0.19 | 0.03 | 49 | 1014.8 |
| 20260507000306 | 56 | 299 | 0.9 | 7.8 | 0.00 | 0.19 | 0.03 | 47 | 1014.8 |
| 20260506234803 | 57 | 345 | 0.0 | 0.0 | 0.00 | 0.22 | 0.03 | 52 | 1014.8 |
| 20260506234303 | 57 | 337 | 0.0 | 0.0 | 0.00 | 0.23 | 0.03 | 47 | 1014.6 |
| 20260506233803 | 58 | 286 | 0.0 | 0.0 | 0.00 | 0.24 | 0.03 | 50 | 1014.6 |
| 20260506233303 | 58 | 291 | 0.0 | 7.0 | 0.00 | 0.25 | 0.03 | 47 | 1014.7 |
| 20260506231303 | 58 | 318 | 0.0 | 1.7 | 0.00 | 0.28 | 0.03 | 47 | 1014.9 |
| 20260506230803 | 59 | 19 | 0.0 | 0.0 | 0.00 | 0.29 | 0.03 | 47 | 1014.8 |
| 20260506230303 | 59 | 172 | 0.0 | 1.7 | 0.00 | 0.29 | 0.03 | 44 | 1014.9 |
| 20260506224804 | 59 | 3 | 0.0 | 0.0 | 0.00 | 0.30 | 0.03 | 51 | 1014.8 |
| 20260506224303 | 60 | 271 | 0.0 | 0.9 | 0.00 | 0.30 | 0.03 | 46 | 1014.8 |
| 20260506223804 | 60 | 252 | 0.0 | 0.9 | 0.00 | 0.31 | 0.03 | 49 | 1014.8 |
| 20260506223303 | 60 | 23 | 0.0 | 2.6 | 0.00 | 0.31 | 0.03 | 41 | 1014.7 |
| 20260506221804 | 60 | 255 | 0.0 | 2.6 | 0.00 | 0.31 | 0.03 | 47 | 1014.9 |
| 20260506221303 | 60 | 264 | 0.0 | 0.9 | 0.00 | 0.32 | 0.03 | 45 | 1014.7 |
| 20260506220303 | 61 | 264 | 0.0 | 2.6 | 0.00 | 0.33 | 0.03 | 41 | 1014.8 |
| 20260506214803 | 61 | 250 | 0.0 | 1.7 | 0.00 | 0.36 | 0.03 | 42 | 1014.6 |
| 20260506214303 | 61 | 15 | 0.0 | 4.3 | 0.00 | 0.37 | 0.03 | 43 | 1014.6 |
| 20260506213803 | 61 | 332 | 0.0 | 2.6 | 0.00 | 0.38 | 0.03 | 40 | 1014.6 |
| 20260506213303 | 61 | 287 | 0.0 | 2.6 | 0.00 | 0.39 | 0.03 | 44 | 1014.6 |
| 20260506211804 | 62 | 263 | 0.9 | 8.7 | 0.00 | 0.43 | 0.03 | 39 | 1014.6 |
| 20260506211304 | 62 | 215 | 0.0 | 0.0 | 0.00 | 0.43 | 0.03 | 43 | 1014.6 |
| 20260506210803 | 62 | 3 | 0.0 | 1.7 | 0.00 | 0.43 | 0.03 | 46 | 1014.7 |
| 20260506210304 | 62 | 254 | 0.0 | 0.9 | 0.00 | 0.43 | 0.03 | 46 | 1014.6 |
| 20260506204803 | 62 | 214 | 0.0 | 2.6 | 0.00 | 0.45 | 0.03 | 44 | 1014.9 |
| 20260506203803 | 62 | 236 | 0.9 | 7.8 | 0.00 | 0.46 | 0.03 | 41 | 1014.9 |
| 20260506203303 | 62 | 299 | 0.0 | 5.2 | 0.00 | 0.46 | 0.03 | 45 | 1015.0 |
| 20260506201803 | 62 | 19 | 0.0 | 2.6 | 0.00 | 0.47 | 0.03 | 46 | 1015.3 |
| 20260506201304 | 62 | 275 | 0.0 | 2.6 | 0.00 | 0.48 | 0.03 | 44 | 1015.3 |
| 20260506194303 | 62 | 231 | 0.0 | 0.9 | 0.00 | 0.48 | 0.03 | 47 | 1015.7 |
| 20260506193803 | 61 | 242 | 0.0 | 1.7 | 0.00 | 0.49 | 0.03 | 56 | 1015.7 |
| 20260506193303 | 60 | 293 | 0.0 | 0.0 | 0.00 | 0.49 | 0.03 | 45 | 1015.8 |
| 20260506191803 | 61 | 301 | 0.0 | 2.6 | 0.00 | 0.50 | 0.03 | 47 | 1015.9 |
| 20260506190804 | 62 | 312 | 0.9 | 2.6 | 0.00 | 0.51 | 0.03 | 51 | 1015.9 |
| 20260506190303 | 62 | 208 | 0.0 | 2.6 | 0.00 | 0.51 | 0.03 | 50 | 1015.8 |
| 20260506184304 | 62 | 286 | 0.0 | 2.6 | 0.00 | 0.52 | 0.03 | 46 | 1016.0 |
| 20260506183803 | 62 | 252 | 0.0 | 2.6 | 0.00 | 0.53 | 0.03 | 50 | 1016.0 |
| 20260506181303 | 62 | 286 | 0.0 | 1.7 | 0.00 | 0.55 | 0.03 | 47 | 1016.1 |
| 20260506180803 | 61 | 319 | 0.0 | 2.6 | 0.00 | 0.55 | 0.03 | 46 | 1016.2 |
| 20260506180303 | 61 | 9 | 0.0 | 4.3 | 0.00 | 0.55 | 0.03 | 49 | 1016.1 |
| 20260506174803 | 60 | 352 | 0.0 | 2.6 | 0.00 | 0.55 | 0.03 | 44 | 1015.9 |
| 20260506174303 | 61 | 232 | 0.0 | 0.0 | 0.00 | 0.55 | 0.03 | 48 | 1016.0 |
| 20260506173803 | 61 | 14 | 0.0 | 0.0 | 0.00 | 0.55 | 0.03 | 52 | 1016.2 |
| 20260506173303 | 60 | 274 | 0.0 | 0.9 | 0.00 | 0.56 | 0.03 | 52 | 1016.3 |
| 20260506171803 | 60 | 295 | 0.0 | 0.0 | 0.00 | 0.56 | 0.03 | 47 | 1016.3 |
| 20260506171303 | 60 | 4 | 0.0 | 0.9 | 0.00 | 0.56 | 0.03 | 56 | 1016.2 |
| 20260506170803 | 60 | 256 | 0.0 | 2.6 | 0.00 | 0.57 | 0.03 | 59 | 1016.2 |
| 20260506170303 | 58 | 5 | 0.0 | 6.1 | 0.00 | 0.57 | 0.03 | 50 | 1016.2 |
| 20260506164804 | 58 | 306 | 0.0 | 1.7 | 0.00 | 0.59 | 0.03 | 53 | 1016.2 |
| 20260506164304 | 57 | 4 | 0.0 | 0.0 | 0.00 | 0.61 | 0.03 | 64 | 1016.1 |
| 20260506163303 | 57 | 327 | 0.0 | 0.9 | 0.00 | 0.62 | 0.03 | 67 | 1016.0 |
| 20260506161803 | 56 | 293 | 0.0 | 0.0 | 0.00 | 0.62 | 0.03 | 62 | 1016.0 |
| 20260506161303 | 56 | 356 | 0.0 | 0.9 | 0.00 | 0.62 | 0.03 | 69 | 1016.0 |
| 20260506160804 | 55 | 296 | 0.0 | 0.9 | 0.00 | 0.62 | 0.03 | 67 | 1016.0 |
| 20260506160303 | 55 | 60 | 0.0 | 4.3 | 0.00 | 0.62 | 0.03 | 67 | 1016.0 |
| 20260506154804 | 54 | 269 | 0.0 | 0.0 | 0.00 | 0.62 | 0.03 | 75 | 1016.0 |
| 20260506154304 | 54 | 290 | 0.0 | 0.0 | 0.00 | 0.62 | 0.03 | 76 | 1015.8 |
| 20260506153803 | 54 | 290 | 0.0 | 0.0 | 0.00 | 0.62 | 0.03 | 76 | 1015.8 |
| 20260506151303 | 52 | 290 | 0.0 | 0.0 | 0.00 | 0.62 | 0.03 | 79 | 1015.8 |
| 20260506150803 | 52 | 254 | 0.0 | 0.0 | 0.00 | 0.62 | 0.03 | 82 | 1015.8 |
| 20260506144804 | 51 | 192 | 0.0 | 0.9 | 0.00 | 0.62 | 0.03 | 86 | 1015.5 |
| 20260506144303 | 51 | 211 | 0.0 | 0.9 | 0.00 | 0.62 | 0.03 | 87 | 1015.5 |
| 20260506143302 | 51 | 275 | 0.0 | 0.0 | 0.00 | 0.62 | 0.03 | 88 | 1015.5 |
| 20260506141802 | 50 | 293 | 0.0 | 0.0 | 0.00 | 0.62 | 0.03 | 93 | 1015.0 |
| 20260506141302 | 50 | 293 | 0.0 | 0.0 | 0.00 | 0.62 | 0.03 | 94 | 1014.9 |
| 20260506140802 | 49 | 293 | 0.0 | 0.0 | 0.00 | 0.62 | 0.03 | 94 | 1014.8 |
| 20260506134302 | 48 | 293 | 0.0 | 0.0 | 0.00 | 0.62 | 0.03 | 94 | 1014.9 |
| 20260506133802 | 48 | 293 | 0.0 | 0.0 | 0.00 | 0.62 | 0.03 | 94 | 1015.0 |
| 20260506133302 | 48 | 293 | 0.0 | 0.0 | 0.00 | 0.62 | 0.03 | 94 | 1015.0 |
| 20260506131802 | 47 | 293 | 0.0 | 0.0 | 0.00 | 0.62 | 0.03 | 94 | 1014.9 |
| 20260506130802 | 47 | 293 | 0.0 | 0.0 | 0.00 | 0.62 | 0.03 | 93 | 1014.7 |
| 20260506130303 | 47 | 293 | 0.0 | 0.0 | 0.00 | 0.62 | 0.03 | 93 | 1014.9 |
| 20260506124803 | 46 | 293 | 0.0 | 0.0 | 0.00 | 0.62 | 0.03 | 93 | 1014.9 |
| 20260506124302 | 46 | 293 | 0.0 | 0.0 | 0.00 | 0.62 | 0.03 | 93 | 1015.1 |
| 20260506123803 | 46 | 293 | 0.0 | 0.0 | 0.00 | 0.62 | 0.03 | 93 | 1015.1 |
| 20260506123303 | 46 | 292 | 0.0 | 0.0 | 0.00 | 0.62 | 0.03 | 93 | 1014.9 |
| 20260506121802 | 46 | 285 | 0.0 | 0.0 | 0.00 | 0.62 | 0.03 | 93 | 1015.1 |
| 20260506121302 | 46 | 267 | 0.0 | 0.0 | 0.00 | 0.62 | 0.03 | 93 | 1015.1 |
| 20260506120803 | 46 | 248 | 0.0 | 0.0 | 0.00 | 0.62 | 0.03 | 94 | 1015.0 |
| 20260506120302 | 46 | 235 | 0.0 | 0.0 | 0.00 | 0.62 | 0.03 | 94 | 1014.6 |
| 20260506114302 | 46 | 180 | 0.0 | 0.0 | 0.01 | 0.62 | 0.03 | 94 | 1014.5 |
| 20260506113302 | 46 | 180 | 0.0 | 0.0 | 0.01 | 0.62 | 0.03 | 94 | 1013.9 |
| 20260506111302 | 46 | 180 | 0.0 | 0.0 | 0.01 | 0.63 | 0.03 | 94 | 1013.8 |
| 20260506110802 | 46 | 180 | 0.0 | 0.0 | 0.01 | 0.64 | 0.03 | 94 | 1013.7 |
| 20260506104802 | 46 | 180 | 0.0 | 0.0 | 0.00 | 0.66 | 0.02 | 94 | 1013.5 |
| 20260506104302 | 46 | 180 | 0.0 | 0.0 | 0.00 | 0.68 | 0.02 | 94 | 1013.1 |
| 20260506103802 | 46 | 180 | 0.0 | 0.0 | 0.00 | 0.70 | 0.02 | 94 | 1013.3 |
| 20260506103302 | 46 | 180 | 0.0 | 0.0 | 0.00 | 0.71 | 0.02 | 94 | 1013.0 |
| 20260506100802 | 46 | 180 | 0.0 | 0.0 | 0.00 | 0.79 | 0.02 | 94 | 1012.5 |
| 20260506100302 | 46 | 180 | 0.0 | 0.0 | 0.00 | 0.79 | 0.02 | 94 | 1012.3 |